Location: La Sioule Rivi�re
(46.3664°N, 3.3197°E)
Time: 12:35:09
(UTC+00:00)

Cosmos 1689 Rocket - Pass Details

Date: 29 October 2020
Orbit: 360 x 375 km, 97.5° (Epoch: 23 November)

Event Time Altitude Azimuth Distance (km) Brightness Sun altitude
Exits shadow 18:19:24 - 3° (N) 1,575 5.1 -18.3°
Reaches altitude 10° 18:19:55 10° 0° (N) 1,357 4.8 -18.4°
Maximum altitude 18:22:40 44° 287° (WNW) 512 3.1 -18.9°
Drops below altitude 10° 18:25:25 10° 213° (SSW) 1,343 5.2 -19.4°
Sets 18:27:23 0° 207° (SSW) 2,185 6.2 -19.7°
